Regional Weather Roundup
Issued by NWS

Home | Current Version | Previous Version | Graphics & Text | Print | Product List | Glossary On
Versions: 1 2 3 4 5 6 7 8 9 10 11 12 13 14 15 16 17 18 19 20 21 22 23 24 25 26 27
000
ASUS45 KBOU 240610
RWRCO

WEATHER ROUNDUP FOR COLORADO
NATIONAL WEATHER SERVICE DENVER/BOULDER CO
1100 PM MST THU NOV 23 2017

NOTE: "FAIR" INDICATES FEW OR NO CLOUDS BELOW 12000 FEET WITH NO
SIGNIFICANT WEATHER AND/OR OBSTRUCTIONS TO VISIBILITY.

COZ001>005-013-030-031-240700-
...NORTHWEST COLORADO...

CITY           SKY/WX    TMP DP  RH WIND       PRES   REMARKS
CRAIG          FAIR      29  28  96 CALM      30.14F
HAYDEN         FAIR      37  32  82 VRB5      30.16F
MEEKER         FAIR      36  30  79 NE6       30.15F
RABBIT EARS PA FAIR      32  30  93 W12G21    30.28S WCI  23
STEAMBOAT SPGS FAIR      34  32  94 CALM      30.16F
WALDEN         MOCLDY    48  27  43 S10G18    30.16F
$$

COZ006>008-011-240700-
...WEST CENTRAL VALLEYS...

CITY           SKY/WX    TMP DP  RH WIND       PRES   REMARKS
GRAND JUNCTION FAIR      42  33  70 E6        30.16S
MONTROSE       FAIR      37  29  72 SE7       30.21F
EAGLE          FAIR      33  28  81 SE3       30.22F
RIFLE          FAIR      37  33  85 CALM      30.18F
DELTA          FAIR      42  32  66 CALM      30.18F
NUCLA          FAIR      41  25  52 SE8       30.23F
$$

COZ017>023-064>068-240700-
...SOUTHWEST COLORADO...

CITY           SKY/WX    TMP DP  RH WIND       PRES   REMARKS
DURANGO        FAIR      29  24  82 NE6       30.24F WCI  23
CORTEZ         FAIR      32  26  78 E8        30.22F WCI  25
PAGOSA SPRINGS FAIR      32  24  74 CALM      30.28F
TELLURIDE      FAIR      39  15  37 SE9       30.35F
WOLF CREEK PAS FAIR      32  21  64 SW10      30.48F WCI  24
$$

COZ009-010-012-014-032>034-037-058>063-240700-
...CENTRAL COLORADO...

CITY           SKY/WX    TMP DP  RH WIND       PRES   REMARKS
ASPEN          FAIR      32  25  75 SE5       30.23S WCI  27
BUENA VISTA    FAIR      32  21  65 CALM      30.17S
COPPER MTN     NOT AVBL
BERTHOUD PASS  FAIR      28  18  64 NW36G47   30.30S WCI  12
COTTONWOOD PAS FAIR      50  12  22 NW12G24   30.23F
GUNNISON       FAIR      28  25  88 CALM      30.27F
KREMMLING      FAIR      34  30  86 CALM      30.21S
LEADVILLE      FAIR      40  12  32 NE13G25   30.26F
MONARCH PASS   FAIR      32  21  64 W40       30.45F WCI  16
SALIDA         FAIR      43  24  46 N13G20    30.20F
SUNLIGHT       FAIR      34  14  44 SW14G22   30.36F WCI  24
WILKERSON PASS FAIR      37   7  28 W14G26    30.27F
$$

COZ069>075-240700-
...SAN LUIS VALLEY/SANGRE DE CRISTO MOUNTAINS...

CITY           SKY/WX    TMP DP  RH WIND       PRES   REMARKS
ALAMOSA        FAIR      27  21  78 SW6       30.23F WCI  20
DEL NORTE      FAIR      29  19  68 W6        30.25F WCI  22
LA VETA PASS   FAIR      39  19  45 MISG        N/A
SAGUACHE       FAIR      30  19  64 NW8       30.24F WCI  23
$$

COZ035-036-038>040-240700-
...NORTHERN COLORADO FRONT RANGE...

CITY           SKY/WX    TMP DP  RH WIND       PRES   REMARKS
DENVER INTL AP MOCLDY    51  23  33 SW12      29.91F
DMNS CITY PARK   N/A     64  15  15 SW14G24   29.92S
AURORA         MOCLDY    58  18  21 W6        29.95F
FRONT RANGE AP FAIR      60  22  24 MISG      29.92F
ERIE MUNI ARPT FAIR      49  26  40 S6        29.95F
BOULDER MUN AP FAIR      54  27  35 CALM      29.90F
CENTENNIAL     MOCLDY    50  22  33 SW12      29.96F
BROOMFIELD     FAIR      64  23  20 W15G31    29.92F
FORT COLLINS   FAIR      48  32  53 E7        29.89F
LONGMONT       FAIR      51  29  42 SW3       29.91S
$$

COZ041-046-047-076>085-087-088-240700-
...PIKES PEAK/PALMER DIVIDE AND SOUTHERN FOOTHILLS...

CITY           SKY/WX    TMP DP  RH WIND       PRES   REMARKS
COLO. SPRINGS  MOCLDY    54  29  38 NW5       30.01F
A. F. ACADEMY  FAIR      56  15  20 W8        30.01F
SCHRIEVER AFB  MOCLDY    53  22  29 NW8       30.00F
CHEYENNE MTN   FAIR      61  12  15 SW8       29.99F
ELLICOTT         N/A      1   1 100 CALM      29.98F
FALCON         FAIR      55  13  19 W18       30.04F
FORT CARSON    MOCLDY    50  29  44 W3        29.98F
LIMON          FAIR      36  29  75 N8        29.93F
MONUMENT HILL  FAIR      50  19  29 SW10      30.04F
CANON CITY     FAIR      55  23  28 NW7       29.99S
WALSENBURG     FAIR      61  19  20 W22       30.02F
TRINIDAD       FAIR      48  28  46 W15       30.02F
$$

COZ042>045-048>051-090-091-240700-
...NORTHEAST COLORADO...

CITY           SKY/WX    TMP DP  RH WIND       PRES   REMARKS
GREELEY ARPT   FAIR      41  32  70 S3        29.88F
AKRON          FAIR      51  27  39 SW13      29.88F
BURLINGTON     FAIR      48  35  60 SW13      29.88F
WRAY           NOT AVBL
YUMA           FAIR      45  30  57 W8        29.86S
STERLING       FAIR      41  30  65 S7        29.85S
HOLYOKE        FAIR      45  32  61 W8        29.82F
FORT MORGAN    FAIR      44  26  47 W7        29.87F
$$

COZ086-089-092>099-240700-
...SOUTHEAST COLORADO...

CITY           SKY/WX    TMP DP  RH WIND       PRES   REMARKS
PUEBLO         FAIR      66  22  18 W15G25    29.93F
LA JUNTA       FAIR      50  31  48 SW12      29.91F
LAMAR          FAIR      37  30  75 W5        29.88F
SPRINGFIELD      N/A     45  32  60 SW10      29.92F
$$




USA.gov is the U.S. government's official web portal to all federal, state and local government web resources and services.